Time,TemperatureF,DewpointF,PressureIn,WindDirection,WindDirectionDegrees,WindSpeedMPH,WindSpeedGustMPH,Humidity,HourlyPrecipIn,Conditions,Clouds,dailyrainin,SoftwareType,DateUTC
2013-04-23 00:00:00,44.5,37.4,30.24,East,79,0.0,1.0,76,0.00,,,0.00,Wunderground v.1.15,2013-04-23 04:00:00,
2013-04-23 00:05:00,44.3,37.2,30.24,East,79,0.0,1.0,76,0.00,,,0.00,Wunderground v.1.15,2013-04-23 04:05:00,
2013-04-23 00:10:00,44.2,37.4,30.24,ENE,77,0.0,1.0,77,0.00,,,0.00,Wunderground v.1.15,2013-04-23 04:10:00,
2013-04-23 00:15:00,44.1,37.7,30.23,ENE,77,0.0,1.0,78,0.00,,,0.00,Wunderground v.1.15,2013-04-23 04:15:00,
2013-04-23 00:25:00,43.7,37.3,30.23,East,79,0.0,0.0,78,0.00,,,0.00,Wunderground v.1.15,2013-04-23 04:25:00,
2013-04-23 00:30:00,43.6,37.5,30.23,East,79,0.0,0.0,79,0.00,,,0.00,Wunderground v.1.15,2013-04-23 04:30:00,
2013-04-23 00:35:00,43.6,37.8,30.22,East,96,0.0,0.0,80,0.00,,,0.00,Wunderground v.1.15,2013-04-23 04:35:00,
2013-04-23 00:45:00,43.5,37.7,30.22,East,80,1.0,1.0,80,0.00,,,0.00,Wunderground v.1.15,2013-04-23 04:45:00,
2013-04-23 00:55:00,43.5,38.1,30.22,East,93,1.0,1.0,81,0.00,,,0.00,Wunderground v.1.15,2013-04-23 04:55:00,
2013-04-23 01:00:00,43.6,38.2,30.22,East,82,0.0,1.0,81,0.00,,,0.00,Wunderground v.1.15,2013-04-23 05:00:00,
2013-04-23 01:10:00,43.4,38.0,30.22,East,98,0.0,0.0,81,0.00,,,0.00,Wunderground v.1.15,2013-04-23 05:10:00,
2013-04-23 01:20:00,43.1,38.0,30.21,East,86,0.0,0.0,82,0.00,,,0.00,Wunderground v.1.15,2013-04-23 05:20:00,
2013-04-23 01:30:00,42.8,38.0,30.21,East,86,0.0,0.0,83,0.00,,,0.00,Wunderground v.1.15,2013-04-23 05:30:00,
2013-04-23 01:35:00,42.8,38.3,30.21,East,82,0.0,0.0,84,0.00,,,0.00,Wunderground v.1.15,2013-04-23 05:35:00,
2013-04-23 01:40:00,43.2,39.0,30.21,East,82,0.0,0.0,85,0.00,,,0.00,Wunderground v.1.15,2013-04-23 05:40:00,
2013-04-23 01:50:00,43.8,39.6,30.20,ESE,103,1.0,1.0,85,0.00,,,0.00,Wunderground v.1.15,2013-04-23 05:50:00,
2013-04-23 01:55:00,44.0,39.5,30.20,ESE,103,0.0,1.0,84,0.00,,,0.00,Wunderground v.1.15,2013-04-23 05:55:00,
2013-04-23 02:00:00,44.0,39.8,30.20,East,89,0.0,0.0,85,0.00,,,0.00,Wunderground v.1.15,2013-04-23 06:00:00,
2013-04-23 02:10:00,43.9,39.4,30.20,East,89,0.0,0.0,84,0.00,,,0.00,Wunderground v.1.15,2013-04-23 06:10:00,
2013-04-23 02:15:00,43.6,39.4,30.20,East,89,0.0,1.0,85,0.00,,,0.00,Wunderground v.1.15,2013-04-23 06:15:00,
2013-04-23 02:25:00,43.2,39.3,30.20,East,89,0.0,0.0,86,0.00,,,0.00,Wunderground v.1.15,2013-04-23 06:25:00,
2013-04-23 02:30:00,43.1,39.5,30.19,East,89,0.0,0.0,87,0.00,,,0.00,Wunderground v.1.15,2013-04-23 06:30:00,
2013-04-23 02:40:00,43.2,39.6,30.19,East,89,0.0,0.0,87,0.00,,,0.00,Wunderground v.1.15,2013-04-23 06:40:00,
2013-04-23 02:50:00,43.5,39.9,30.19,East,89,0.0,0.0,87,0.00,,,0.00,Wunderground v.1.15,2013-04-23 06:50:00,
2013-04-23 03:00:00,43.8,39.9,30.18,East,89,0.0,0.0,86,0.00,,,0.00,Wunderground v.1.15,2013-04-23 07:00:00,
2013-04-23 03:05:00,44.1,40.2,30.18,East,89,0.0,0.0,86,0.00,,,0.00,Wunderground v.1.15,2013-04-23 07:05:00,
2013-04-23 03:15:00,44.5,40.0,30.17,East,89,0.0,0.0,84,0.00,,,0.00,Wunderground v.1.15,2013-04-23 07:15:00,
2013-04-23 03:20:00,44.6,39.8,30.17,East,89,0.0,0.0,83,0.00,,,0.00,Wunderground v.1.15,2013-04-23 07:20:00,
2013-04-23 03:25:00,44.7,39.9,30.17,East,89,0.0,0.0,83,0.00,,,0.00,Wunderground v.1.15,2013-04-23 07:25:00,
2013-04-23 03:35:00,45.1,39.9,30.17,East,99,0.0,0.0,82,0.00,,,0.00,Wunderground v.1.15,2013-04-23 07:35:00,
2013-04-23 03:40:00,45.2,39.7,30.17,ESE,106,0.0,1.0,81,0.00,,,0.00,Wunderground v.1.15,2013-04-23 07:40:00,
2013-04-23 03:50:00,45.3,39.8,30.17,ESE,106,0.0,0.0,81,0.00,,,0.00,Wunderground v.1.15,2013-04-23 07:50:00,
2013-04-23 03:55:00,45.4,39.6,30.17,ESE,106,0.0,1.0,80,0.00,,,0.00,Wunderground v.1.15,2013-04-23 07:55:00,
2013-04-23 04:00:00,45.6,39.8,30.17,ESE,123,0.0,0.0,80,0.00,,,0.00,Wunderground v.1.15,2013-04-23 08:00:00,
2013-04-23 04:10:00,45.6,39.5,30.17,ESE,123,0.0,0.0,79,0.00,,,0.00,Wunderground v.1.15,2013-04-23 08:10:00,
2013-04-23 04:15:00,45.5,39.4,30.17,ESE,107,0.0,1.0,79,0.00,,,0.00,Wunderground v.1.15,2013-04-23 08:15:00,
2013-04-23 04:25:00,45.9,39.4,30.16,East,94,0.0,1.0,78,0.00,,,0.00,Wunderground v.1.15,2013-04-23 08:25:00,
2013-04-23 04:35:00,46.1,39.3,30.16,SE,145,0.0,1.0,77,0.00,,,0.00,Wunderground v.1.15,2013-04-23 08:35:00,
2013-04-23 04:45:00,46.4,38.9,30.16,SE,126,0.0,0.0,75,0.00,,,0.00,Wunderground v.1.15,2013-04-23 08:45:00,
2013-04-23 04:50:00,46.4,38.9,30.16,SSE,159,0.0,0.0,75,0.00,,,0.00,Wunderground v.1.15,2013-04-23 08:50:00,
2013-04-23 05:00:00,46.5,39.0,30.16,SE,143,0.0,0.0,75,0.00,,,0.00,Wunderground v.1.15,2013-04-23 09:00:00,
2013-04-23 05:10:00,46.3,38.8,30.16,SE,138,0.0,0.0,75,0.00,,,0.00,Wunderground v.1.15,2013-04-23 09:10:00,
2013-04-23 05:20:00,46.2,38.7,30.15,SE,125,0.0,0.0,75,0.00,,,0.00,Wunderground v.1.15,2013-04-23 09:20:00,
2013-04-23 05:25:00,46.2,38.7,30.15,ESE,112,0.0,0.0,75,0.00,,,0.00,Wunderground v.1.15,2013-04-23 09:25:00,
2013-04-23 05:35:00,46.4,38.6,30.15,West,262,0.0,0.0,74,0.00,,,0.00,Wunderground v.1.15,2013-04-23 09:35:00,
2013-04-23 05:45:00,46.7,37.8,30.15,SW,234,1.0,1.0,71,0.00,,,0.00,Wunderground v.1.15,2013-04-23 09:45:00,
2013-04-23 05:55:00,46.9,37.3,30.14,SE,139,1.0,1.0,69,0.00,,,0.00,Wunderground v.1.15,2013-04-23 09:55:00,
2013-04-23 06:00:00,46.8,37.2,30.13,SW,231,1.0,1.0,69,0.00,,,0.00,Wunderground v.1.15,2013-04-23 10:00:00,
2013-04-23 06:10:00,46.8,36.8,30.13,SW,234,1.0,1.0,68,0.00,,,0.00,Wunderground v.1.15,2013-04-23 10:10:00,
2013-04-23 06:20:00,46.8,36.0,30.13,SE,139,0.0,1.0,66,0.00,,,0.00,Wunderground v.1.15,2013-04-23 10:20:00,
2013-04-23 06:25:00,46.8,36.0,30.13,ESE,105,1.0,1.0,66,0.00,,,0.00,Wunderground v.1.15,2013-04-23 10:25:00,
2013-04-23 06:30:00,46.9,36.1,30.12,SE,128,1.0,1.0,66,0.00,,,0.00,Wunderground v.1.15,2013-04-23 10:30:00,
2013-04-23 06:40:00,47.1,35.5,30.12,SSE,150,1.0,1.0,64,0.00,,,0.00,Wunderground v.1.15,2013-04-23 10:40:00,
2013-04-23 06:50:00,47.4,35.8,30.12,SSE,151,1.0,1.0,64,0.00,,,0.00,Wunderground v.1.15,2013-04-23 10:50:00,
2013-04-23 07:00:00,47.5,36.3,30.13,WSW,255,1.0,1.0,65,0.00,,,0.00,Wunderground v.1.15,2013-04-23 11:00:00,
2013-04-23 07:10:00,47.8,36.6,30.13,SW,232,1.0,2.0,65,0.00,,,0.00,Wunderground v.1.15,2013-04-23 11:10:00,
2013-04-23 07:15:00,48.0,36.8,30.14,ESE,110,1.0,2.0,65,0.00,,,0.00,Wunderground v.1.15,2013-04-23 11:15:00,
2013-04-23 07:25:00,48.3,36.7,30.13,SSE,162,1.0,1.0,64,0.00,,,0.00,Wunderground v.1.15,2013-04-23 11:25:00,
2013-04-23 07:35:00,48.6,36.6,30.14,SW,221,2.0,4.0,63,0.00,,,0.00,Wunderground v.1.15,2013-04-23 11:35:00,
2013-04-23 07:45:00,49.0,35.7,30.13,SE,139,3.0,6.0,60,0.00,,,0.00,Wunderground v.1.15,2013-04-23 11:45:00,
2013-04-23 07:50:00,49.2,35.9,30.13,SW,226,3.0,3.0,60,0.00,,,0.00,Wunderground v.1.15,2013-04-23 11:50:00,
2013-04-23 08:00:00,49.3,35.6,30.14,SW,231,3.0,4.0,59,0.00,,,0.00,Wunderground v.1.15,2013-04-23 12:00:00,
2013-04-23 08:10:00,49.4,35.7,30.14,WSW,238,2.0,2.0,59,0.00,,,0.00,Wunderground v.1.15,2013-04-23 12:10:00,
2013-04-23 08:20:00,50.0,36.2,30.14,SW,219,2.0,2.0,59,0.00,,,0.00,Wunderground v.1.15,2013-04-23 12:20:00,
2013-04-23 08:25:00,50.6,36.8,30.14,SSE,154,2.0,2.0,59,0.00,,,0.00,Wunderground v.1.15,2013-04-23 12:25:00,
2013-04-23 08:35:00,51.8,37.0,30.13,SSW,207,2.0,2.0,57,0.00,,,0.00,Wunderground v.1.15,2013-04-23 12:35:00,
2013-04-23 08:45:00,52.3,35.7,30.13,SE,125,3.0,5.0,53,0.00,,,0.00,Wunderground v.1.15,2013-04-23 12:45:00,
2013-04-23 08:55:00,52.9,36.2,30.14,South,186,3.0,3.0,53,0.00,,,0.00,Wunderground v.1.15,2013-04-23 12:55:00,
2013-04-23 09:00:00,53.0,35.8,30.13,WSW,239,3.0,5.0,52,0.00,,,0.00,Wunderground v.1.15,2013-04-23 13:00:00,
2013-04-23 09:10:00,53.2,36.0,30.13,SW,217,3.0,5.0,52,0.00,,,0.00,Wunderground v.1.15,2013-04-23 13:10:00,
2013-04-23 09:20:00,53.4,35.7,30.13,SSW,213,5.0,6.0,51,0.00,,,0.00,Wunderground v.1.15,2013-04-23 13:20:00,
2013-04-23 09:30:00,54.3,37.0,30.13,SW,221,3.0,4.0,52,0.00,,,0.00,Wunderground v.1.15,2013-04-23 13:30:00,
2013-04-23 09:35:00,54.5,37.2,30.12,ESE,115,2.0,4.0,52,0.00,,,0.00,Wunderground v.1.15,2013-04-23 13:35:00,
2013-04-23 09:45:00,54.7,36.9,30.12,SW,221,2.0,2.0,51,0.00,,,0.00,Wunderground v.1.15,2013-04-23 13:45:00,
2013-04-23 09:50:00,55.0,37.2,30.12,SSW,202,3.0,3.0,51,0.00,,,0.00,Wunderground v.1.15,2013-04-23 13:50:00,
2013-04-23 10:00:00,55.9,37.0,30.12,SW,229,3.0,6.0,49,0.00,,,0.00,Wunderground v.1.15,2013-04-23 14:00:00,
2013-04-23 10:10:00,56.8,38.9,30.13,SW,222,3.0,5.0,51,0.00,,,0.00,Wunderground v.1.15,2013-04-23 14:10:00,
2013-04-23 10:20:00,57.1,37.6,30.13,SSE,162,5.0,6.0,48,0.00,,,0.00,Wunderground v.1.15,2013-04-23 14:20:00,
2013-04-23 10:25:00,57.4,37.9,30.12,East,94,5.0,6.0,48,0.00,,,0.00,Wunderground v.1.15,2013-04-23 14:25:00,
2013-04-23 10:35:00,59.2,40.0,30.11,South,169,3.0,4.0,49,0.00,,,0.00,Wunderground v.1.15,2013-04-23 14:35:00,
2013-04-23 10:40:00,59.7,39.4,30.11,East,96,3.0,4.0,47,0.00,,,0.00,Wunderground v.1.15,2013-04-23 14:40:00,
2013-04-23 10:50:00,60.5,39.0,30.10,SE,133,3.0,4.0,45,0.00,,,0.00,Wunderground v.1.15,2013-04-23 14:50:00,
2013-04-23 10:55:00,60.7,39.8,30.10,SSE,168,4.0,4.0,46,0.00,,,0.00,Wunderground v.1.15,2013-04-23 14:55:00,
2013-04-23 11:00:00,60.9,38.8,30.10,SW,218,4.0,5.0,44,0.00,,,0.00,Wunderground v.1.15,2013-04-23 15:00:00,
2013-04-23 11:10:00,61.3,40.3,30.10,South,171,4.0,4.0,46,0.00,,,0.00,Wunderground v.1.15,2013-04-23 15:10:00,
2013-04-23 11:20:00,62.9,41.2,30.09,WSW,246,2.0,2.0,45,0.00,,,0.00,Wunderground v.1.15,2013-04-23 15:20:00,
2013-04-23 11:30:00,63.0,40.1,30.09,SW,217,4.0,4.0,43,0.00,,,0.00,Wunderground v.1.15,2013-04-23 15:30:00,
2013-04-23 11:40:00,63.7,40.2,30.09,WSW,243,6.0,10.0,42,0.00,,,0.00,Wunderground v.1.15,2013-04-23 15:40:00,
2013-04-23 11:50:00,64.2,40.0,30.08,SW,226,5.0,5.0,41,0.00,,,0.00,Wunderground v.1.15,2013-04-23 15:50:00,
2013-04-23 12:00:00,65.0,41.3,30.08,SW,233,5.0,5.0,42,0.00,,,0.00,Wunderground v.1.15,2013-04-23 16:00:00,
2013-04-23 12:10:00,65.3,41.6,30.08,West,274,5.0,5.0,42,0.00,,,0.00,Wunderground v.1.15,2013-04-23 16:10:00,
2013-04-23 12:15:00,66.0,42.2,30.07,East,101,3.0,5.0,42,0.00,,,0.00,Wunderground v.1.15,2013-04-23 16:15:00,
2013-04-23 12:25:00,66.1,41.7,30.07,SW,225,4.0,8.0,41,0.00,,,0.00,Wunderground v.1.15,2013-04-23 16:25:00,
2013-04-23 12:35:00,67.1,42.6,30.07,WSW,238,4.0,7.0,41,0.00,,,0.00,Wunderground v.1.15,2013-04-23 16:35:00,
2013-04-23 12:45:00,67.7,42.5,30.06,SW,218,3.0,3.0,40,0.00,,,0.00,Wunderground v.1.15,2013-04-23 16:45:00,
2013-04-23 12:50:00,68.0,42.1,30.06,East,97,4.0,5.0,39,0.00,,,0.00,Wunderground v.1.15,2013-04-23 16:50:00,
2013-04-23 13:00:00,68.6,42.6,30.05,SW,223,5.0,5.0,39,0.00,,,0.00,Wunderground v.1.15,2013-04-23 17:00:00,
2013-04-23 13:10:00,69.3,43.9,30.04,SE,132,4.0,4.0,40,0.00,,,0.00,Wunderground v.1.15,2013-04-23 17:10:00,
2013-04-23 13:15:00,69.4,44.7,30.04,SE,146,4.0,4.0,41,0.00,,,0.00,Wunderground v.1.15,2013-04-23 17:15:00,
2013-04-23 13:25:00,69.5,45.4,30.03,WSW,238,5.0,10.0,42,0.00,,,0.00,Wunderground v.1.15,2013-04-23 17:25:00,
2013-04-23 13:30:00,69.9,43.8,30.03,West,265,4.0,4.0,39,0.00,,,0.00,Wunderground v.1.15,2013-04-23 17:30:00,
2013-04-23 13:35:00,70.2,43.4,30.02,SW,236,4.0,6.0,38,0.00,,,0.00,Wunderground v.1.15,2013-04-23 17:35:00,
2013-04-23 13:40:00,70.7,44.5,30.02,SSW,211,4.0,5.0,39,0.00,,,0.00,Wunderground v.1.15,2013-04-23 17:40:00,
2013-04-23 13:50:00,70.3,44.2,30.01,SSW,210,4.0,4.0,39,0.00,,,0.00,Wunderground v.1.15,2013-04-23 17:50:00,
2013-04-23 13:55:00,70.3,43.5,30.01,SW,215,3.0,6.0,38,0.00,,,0.00,Wunderground v.1.15,2013-04-23 17:55:00,
2013-04-23 14:00:00,70.4,44.3,30.01,South,173,4.0,4.0,39,0.00,,,0.00,Wunderground v.1.15,2013-04-23 18:00:00,
2013-04-23 14:10:00,70.6,42.3,30.00,SSW,212,6.0,6.0,36,0.00,,,0.00,Wunderground v.1.15,2013-04-23 18:10:00,
2013-04-23 14:15:00,71.1,44.2,30.00,West,270,5.0,6.0,38,0.00,,,0.00,Wunderground v.1.15,2013-04-23 18:15:00,
2013-04-23 14:25:00,71.8,44.8,29.99,SW,217,4.0,4.0,38,0.00,,,0.00,Wunderground v.1.15,2013-04-23 18:25:00,
2013-04-23 14:30:00,72.1,44.4,29.99,SW,233,3.0,4.0,37,0.00,,,0.00,Wunderground v.1.15,2013-04-23 18:30:00,
2013-04-23 14:40:00,72.0,45.0,29.98,South,169,5.0,5.0,38,0.00,,,0.00,Wunderground v.1.15,2013-04-23 18:40:00,
2013-04-23 14:45:00,72.1,43.7,29.98,SW,214,4.0,8.0,36,0.00,,,0.00,Wunderground v.1.15,2013-04-23 18:45:00,
2013-04-23 14:55:00,71.6,44.6,29.98,North,7,7.0,7.0,38,0.00,,,0.00,Wunderground v.1.15,2013-04-23 18:55:00,
2013-04-23 15:00:00,71.5,43.8,29.97,South,191,5.0,5.0,37,0.00,,,0.00,Wunderground v.1.15,2013-04-23 19:00:00,
2013-04-23 15:10:00,71.8,44.8,29.97,SW,231,3.0,4.0,38,0.00,,,0.00,Wunderground v.1.15,2013-04-23 19:10:00,
2013-04-23 15:20:00,71.7,44.0,29.97,SSW,209,5.0,7.0,37,0.00,,,0.00,Wunderground v.1.15,2013-04-23 19:20:00,
2013-04-23 15:30:00,71.5,44.5,29.96,SSW,208,6.0,6.0,38,0.00,,,0.00,Wunderground v.1.15,2013-04-23 19:30:00,
2013-04-23 15:40:00,71.7,44.0,29.95,SW,221,6.0,6.0,37,0.00,,,0.00,Wunderground v.1.15,2013-04-23 19:40:00,
2013-04-23 15:50:00,71.8,43.4,29.95,SW,224,6.0,6.0,36,0.00,,,0.00,Wunderground v.1.15,2013-04-23 19:50:00,
2013-04-23 15:55:00,71.8,43.4,29.95,SSW,205,6.0,7.0,36,0.00,,,0.00,Wunderground v.1.15,2013-04-23 19:55:00,
2013-04-23 16:00:00,71.6,43.2,29.95,WSW,237,5.0,5.0,36,0.00,,,0.00,Wunderground v.1.15,2013-04-23 20:00:00,
2013-04-23 16:10:00,71.6,43.2,29.94,SW,223,7.0,7.0,36,0.00,,,0.00,Wunderground v.1.15,2013-04-23 20:10:00,
2013-04-23 16:20:00,71.6,43.2,29.94,SW,233,7.0,7.0,36,0.00,,,0.00,Wunderground v.1.15,2013-04-23 20:20:00,
2013-04-23 16:30:00,71.6,43.2,29.93,ENE,60,6.0,6.0,36,0.00,,,0.00,Wunderground v.1.15,2013-04-23 20:30:00,
2013-04-23 16:40:00,71.2,42.9,29.93,WSW,240,6.0,6.0,36,0.00,,,0.00,Wunderground v.1.15,2013-04-23 20:40:00,
2013-04-23 16:50:00,71.1,44.2,29.93,SW,230,6.0,9.0,38,0.00,,,0.00,Wunderground v.1.15,2013-04-23 20:50:00,
2013-04-23 17:00:00,70.9,44.7,29.92,East,92,7.0,9.0,39,0.00,,,0.00,Wunderground v.1.15,2013-04-23 21:00:00,
2013-04-23 17:10:00,70.5,43.7,29.92,SSW,212,7.0,7.0,38,0.00,,,0.00,Wunderground v.1.15,2013-04-23 21:10:00,
2013-04-23 17:15:00,70.5,43.7,29.92,SW,228,7.0,7.0,38,0.00,,,0.00,Wunderground v.1.15,2013-04-23 21:15:00,
2013-04-23 17:25:00,70.3,44.8,29.92,WSW,244,7.0,10.0,40,0.00,,,0.00,Wunderground v.1.15,2013-04-23 21:25:00,
2013-04-23 17:35:00,70.2,45.4,29.91,SSW,206,7.0,7.0,41,0.00,,,0.00,Wunderground v.1.15,2013-04-23 21:35:00,
2013-04-23 17:40:00,70.1,45.3,29.91,SSW,212,7.0,7.0,41,0.00,,,0.00,Wunderground v.1.15,2013-04-23 21:40:00,
2013-04-23 17:50:00,70.0,45.8,29.91,ESE,115,5.0,5.0,42,0.00,,,0.00,Wunderground v.1.15,2013-04-23 21:50:00,
2013-04-23 17:55:00,69.6,44.8,29.91,SSW,198,4.0,7.0,41,0.00,,,0.00,Wunderground v.1.15,2013-04-23 21:55:00,
2013-04-23 18:00:00,69.2,45.7,29.91,SW,217,6.0,8.0,43,0.00,,,0.00,Wunderground v.1.15,2013-04-23 22:00:00,
2013-04-23 18:10:00,68.7,46.5,29.91,SSW,207,5.0,6.0,45,0.00,,,0.00,Wunderground v.1.15,2013-04-23 22:10:00,
2013-04-23 18:15:00,68.2,47.2,29.91,SW,218,5.0,6.0,47,0.00,,,0.00,Wunderground v.1.15,2013-04-23 22:15:00,
2013-04-23 18:25:00,67.3,49.1,29.93,SW,221,4.0,13.0,52,0.00,,,0.00,Wunderground v.1.15,2013-04-23 22:25:00,
2013-04-23 18:30:00,64.1,52.5,29.93,SSW,207,6.0,6.0,66,0.00,,,0.01,Wunderground v.1.15,2013-04-23 22:30:00,
2013-04-23 18:40:00,61.2,53.6,29.93,SSW,205,3.0,3.0,76,0.07,,,0.02,Wunderground v.1.15,2013-04-23 22:40:00,
2013-04-23 18:50:00,60.2,54.0,29.93,SW,233,3.0,3.0,80,0.05,,,0.02,Wunderground v.1.15,2013-04-23 22:50:00,
2013-04-23 19:00:00,59.7,54.2,29.93,SW,229,1.0,1.0,82,0.04,,,0.03,Wunderground v.1.15,2013-04-23 23:00:00,
2013-04-23 19:10:00,59.6,54.4,29.93,WSW,240,2.0,2.0,83,0.05,,,0.04,Wunderground v.1.15,2013-04-23 23:10:00,
2013-04-23 19:20:00,59.1,54.6,29.95,West,259,4.0,4.0,85,0.39,,,0.07,Wunderground v.1.15,2013-04-23 23:20:00,
2013-04-23 19:30:00,58.2,54.7,29.94,SW,235,3.0,3.0,88,0.18,,,0.11,Wunderground v.1.15,2013-04-23 23:30:00,
2013-04-23 19:35:00,57.9,54.7,29.93,SW,234,3.0,4.0,89,0.14,,,0.12,Wunderground v.1.15,2013-04-23 23:35:00,
2013-04-23 19:40:00,57.7,54.5,29.93,SW,234,3.0,3.0,89,0.06,,,0.12,Wunderground v.1.15,2013-04-23 23:40:00,
2013-04-23 19:50:00,57.5,54.6,29.93,SW,214,2.0,2.0,90,0.00,,,0.12,Wunderground v.1.15,2013-04-23 23:50:00,
2013-04-23 19:55:00,57.4,54.5,29.92,WSW,238,1.0,2.0,90,0.00,,,0.12,Wunderground v.1.15,2013-04-23 23:55:00,
2013-04-23 20:00:00,57.3,54.4,29.92,WSW,238,0.0,0.0,90,0.00,,,0.12,Wunderground v.1.15,2013-04-24 00:00:00,
2013-04-23 20:10:00,57.2,54.3,29.92,SW,231,0.0,0.0,90,0.00,,,0.12,Wunderground v.1.15,2013-04-24 00:10:00,
2013-04-23 20:15:00,57.1,54.5,29.92,SSW,212,0.0,1.0,91,0.00,,,0.13,Wunderground v.1.15,2013-04-24 00:15:00,
2013-04-23 20:25:00,57.0,54.4,29.92,SW,221,1.0,2.0,91,0.00,,,0.13,Wunderground v.1.15,2013-04-24 00:25:00,
2013-04-23 20:35:00,57.0,54.4,29.92,SSW,209,1.0,2.0,91,0.00,,,0.13,Wunderground v.1.15,2013-04-24 00:35:00,
2013-04-23 20:45:00,57.0,54.4,29.92,SSW,212,1.0,2.0,91,0.00,,,0.13,Wunderground v.1.15,2013-04-24 00:45:00,
2013-04-23 20:55:00,56.9,54.6,29.92,SW,217,0.0,1.0,92,0.00,,,0.13,Wunderground v.1.15,2013-04-24 00:55:00,
2013-04-23 21:00:00,56.8,54.5,29.92,SW,217,0.0,0.0,92,0.00,,,0.14,Wunderground v.1.15,2013-04-24 01:00:00,
2013-04-23 21:10:00,56.7,54.7,29.92,SW,217,0.0,0.0,93,0.07,,,0.15,Wunderground v.1.15,2013-04-24 01:10:00,
2013-04-23 21:15:00,56.7,54.7,29.92,SW,217,0.0,0.0,93,0.10,,,0.16,Wunderground v.1.15,2013-04-24 01:15:00,
2013-04-23 21:25:00,56.5,54.5,29.92,ESE,117,0.0,1.0,93,0.05,,,0.16,Wunderground v.1.15,2013-04-24 01:25:00,
2013-04-23 21:30:00,56.5,54.5,29.91,ESE,117,0.0,0.0,93,0.00,,,0.16,Wunderground v.1.15,2013-04-24 01:30:00,
2013-04-23 21:40:00,56.3,54.3,29.90,ESE,117,0.0,0.0,93,0.00,,,0.16,Wunderground v.1.15,2013-04-24 01:40:00,
2013-04-23 21:50:00,56.2,54.2,29.90,ESE,117,0.0,0.0,93,0.00,,,0.16,Wunderground v.1.15,2013-04-24 01:50:00,
2013-04-23 22:00:00,56.1,54.4,29.89,ESE,117,0.0,0.0,94,0.00,,,0.16,Wunderground v.1.15,2013-04-24 02:00:00,
2013-04-23 22:10:00,56.0,54.3,29.88,ESE,117,0.0,0.0,94,0.00,,,0.16,Wunderground v.1.15,2013-04-24 02:10:00,
2013-04-23 22:15:00,55.9,54.2,29.88,ESE,117,0.0,0.0,94,0.00,,,0.17,Wunderground v.1.15,2013-04-24 02:15:00,
2013-04-23 22:25:00,56.0,54.6,29.89,SE,141,0.0,1.0,95,0.00,,,0.17,Wunderground v.1.15,2013-04-24 02:25:00,
2013-04-23 22:35:00,56.0,54.6,29.89,SSE,155,0.0,0.0,95,0.04,,,0.18,Wunderground v.1.15,2013-04-24 02:35:00,
2013-04-23 22:45:00,56.0,54.6,29.89,SSE,155,0.0,0.0,95,0.06,,,0.19,Wunderground v.1.15,2013-04-24 02:45:00,
2013-04-23 22:55:00,56.0,54.6,29.88,SSE,155,0.0,0.0,95,0.08,,,0.20,Wunderground v.1.15,2013-04-24 02:55:00,
2013-04-23 23:00:00,55.9,54.5,29.88,SSE,155,0.0,0.0,95,0.07,,,0.21,Wunderground v.1.15,2013-04-24 03:00:00,
2013-04-23 23:10:00,55.7,54.3,29.86,East,86,0.0,1.0,95,0.05,,,0.21,Wunderground v.1.15,2013-04-24 03:10:00,
2013-04-23 23:20:00,55.0,53.3,29.86,ESE,110,1.0,1.0,94,0.00,,,0.21,Wunderground v.1.15,2013-04-24 03:20:00,
2013-04-23 23:30:00,54.7,53.3,29.86,SE,125,0.0,0.0,95,0.00,,,0.21,Wunderground v.1.15,2013-04-24 03:30:00,
2013-04-23 23:40:00,54.7,53.3,29.85,ESE,117,0.0,0.0,95,0.00,,,0.22,Wunderground v.1.15,2013-04-24 03:40:00,
2013-04-23 23:55:00,54.9,53.8,29.84,ESE,113,0.0,1.0,96,0.04,,,0.23,Wunderground v.1.15,2013-04-24 03:55:00,